Weather History for Flippin, AR

Change the Weather History Date:

Friday, October 12, 2012

  Actual Average Record
Temperature  
Mean Temperature 55 °F -  
Max Temperature 57 °F 69 °F 82 °F (1999)
Min Temperature 53 °F 47 °F 39 °F (2000)
Degree Days  
Heating Degree Days 10    
Growing Degree Days 5 (Base 50)    
Moisture  
Dew Point 51 °F    
Average Humidity 83    
Maximum Humidity 88    
Minimum Humidity 77    
Precipitation  
Precipitation 1.61 in - - ()
Sea Level Pressure  
Sea Level Pressure 30.22 in    
Wind  
Wind Speed 2 mph (East)    
Max Wind Speed 10 mph    
Max Gust Speed 16 mph    
Visibility 7 miles    
Events Thunderstorm    
Averages and records for this station are not official NWS values.
T = Trace of Precipitation, MM = Missing Value Source: NWS Daily Summary

Daily Weather History Graph

Daily Weather History Graph

Search for Another Location

Airport:

Trip Planner

Search our weather history database for the weather conditions in past years. The results will help you decide how hot, cold, wet, or windy it might be!

Date:

Astronomy

Oct. 12, 2012 Rise Set
Actual Time 7:15 AM CDT 6:37 PM CDT
Civil Twilight 6:49 AM CDT 7:03 PM CDT
Nautical Twilight 6:19 AM CDT 7:33 PM CDT
Astronomical Twilight 5:49 AM CDT 8:02 PM CDT
Moon 4:03 AM CDT (10/12) 4:43 PM CDT (10/12)
Length of Visible Light 12h 14m
Length of Day
11h 22m
Waning Crescent, 10% of the Moon is Illuminated
Oct 12
Waning Crescent
Oct 15
New
Oct 21
First Quarter
Oct 29
Full
Nov 6
Last Quarter

Hourly Weather History & Observations

Time (CDT) Temp. Dew Point Humidity Pressure Visibility Wind Dir Wind Speed Gust Speed Precip Events Conditions
12:15 AM 53.6 °F 48.2 °F 82% 30.19 in 10.0 mi Calm Calm - N/A   Overcast
12:35 AM 53.6 °F 48.2 °F 82% 30.18 in 10.0 mi Calm Calm - N/A   Overcast
1:15 AM 55.4 °F 48.2 °F 77% 30.18 in 10.0 mi Calm Calm - N/A   Mostly Cloudy
1:35 AM 53.6 °F 48.2 °F 82% 30.18 in 10.0 mi Calm Calm - N/A   Mostly Cloudy
1:55 AM 53.6 °F 48.2 °F 82% 30.17 in 10.0 mi East 3.5 mph - N/A   Partly Cloudy
2:35 AM 53.6 °F 48.2 °F 82% 30.16 in 10.0 mi Calm Calm - N/A   Partly Cloudy
2:55 AM 55.4 °F 48.2 °F 77% 30.16 in 10.0 mi Calm Calm - N/A   Clear
3:35 AM 53.6 °F 48.2 °F 82% 30.16 in 10.0 mi Calm Calm - N/A   Clear
3:55 AM 53.6 °F 48.2 °F 82% 30.16 in 10.0 mi Calm Calm - N/A   Clear
4:35 AM 53.6 °F 48.2 °F 82% 30.17 in 10.0 mi NNE 6.9 mph - N/A   Scattered Clouds
4:55 AM 53.6 °F 48.2 °F 82% 30.17 in 10.0 mi NNE 5.8 mph - N/A   Overcast
5:15 AM 53.6 °F 48.2 °F 82% 30.18 in 10.0 mi NNE 4.6 mph - N/A   Mostly Cloudy
5:55 AM 55.4 °F 48.2 °F 77% 30.20 in 10.0 mi NE 3.5 mph - N/A   Mostly Cloudy
6:16 AM 55.4 °F 48.2 °F 77% 30.20 in 10.0 mi Calm Calm - N/A   Mostly Cloudy
6:35 AM 55.4 °F 50.0 °F 82% 30.22 in 10.0 mi Calm Calm - N/A   Mostly Cloudy
6:55 AM 55.4 °F 50.0 °F 82% 30.27 in 10.0 mi NW 10.4 mph 16.1 mph 0.01 in Thunderstorm Thunderstorm
7:35 AM 57.2 °F 51.8 °F 82% 30.24 in 5.0 mi Calm Calm - 0.76 in Thunderstorm Thunderstorm
7:55 AM 55.4 °F 51.8 °F 88% 30.27 in 3.0 mi ESE 5.8 mph - 0.90 in Thunderstorm Thunderstorm
8:35 AM 55.4 °F 51.8 °F 88% 30.26 in 3.0 mi East 3.5 mph - 0.12 in Thunderstorm Mostly Cloudy
9:15 AM 57.2 °F 51.8 °F 82% 30.29 in 7.0 mi Calm Calm - 0.03 in   Overcast
9:35 AM 57.2 °F 51.8 °F 82% 30.29 in 3.0 mi ESE 3.5 mph - 0.07 in   Overcast
9:55 AM 57.2 °F 51.8 °F 82% 30.29 in 5.0 mi Calm Calm - 0.12 in   Overcast
10:15 AM 57.2 °F 51.8 °F 82% 30.29 in 4.0 mi Calm Calm - 0.04 in   Overcast
10:55 AM 57.2 °F 53.6 °F 88% 30.31 in 9.0 mi NNE 5.8 mph - 0.13 in   Overcast
12:35 PM 57.2 °F 51.8 °F 82% 30.29 in 9.0 mi Calm Calm - 0.05 in   Overcast
1:35 PM 57.2 °F 51.8 °F 82% 30.30 in 9.0 mi NNE 6.9 mph - 0.10 in   Overcast
2:35 PM 57.2 °F 51.8 °F 82% 30.28 in 10.0 mi Calm Calm - 0.18 in   Overcast
3:15 PM 57.2 °F 51.8 °F 82% 30.25 in 10.0 mi ESE 4.6 mph - N/A   Overcast
3:36 PM 57.2 °F 51.8 °F 82% 30.22 in 10.0 mi SE 5.8 mph - N/A   Overcast
4:15 PM 57.2 °F 51.8 °F 82% 30.18 in 10.0 mi ESE 9.2 mph - N/A   Overcast
5:15 PM 57.2 °F 53.6 °F 88% 30.21 in 10.0 mi East 8.1 mph - N/A   Overcast
6:15 PM 57.2 °F 51.8 °F 82% 30.22 in 10.0 mi East 4.6 mph - N/A   Overcast
6:35 PM 57.2 °F 51.8 °F 82% 30.22 in 8.0 mi East 6.9 mph - N/A   Overcast
7:15 PM 57.2 °F 51.8 °F 82% 30.22 in 3.0 mi East 6.9 mph - N/A   Overcast
7:35 PM 55.4 °F 51.8 °F 88% 30.23 in 3.0 mi ESE 4.6 mph - N/A   Overcast
7:55 PM 55.4 °F 51.8 °F 88% 30.23 in 2.0 mi ESE 5.8 mph - N/A   Overcast
8:15 PM 55.4 °F 51.8 °F 88% 30.23 in 2.0 mi East 4.6 mph - N/A   Overcast
8:35 PM 55.4 °F 51.8 °F 88% 30.23 in 1.8 mi East 4.6 mph - N/A   Overcast
9:35 PM 55.4 °F 51.8 °F 88% 30.22 in 1.0 mi ESE 8.1 mph - N/A   Overcast
10:15 PM 55.4 °F 51.8 °F 88% 30.21 in 1.8 mi ESE 5.8 mph - N/A   Overcast
11:15 PM 55.4 °F 51.8 °F 88% 30.22 in 1.2 mi East 5.8 mph - N/A   Overcast
11:55 PM 55.4 °F 51.8 °F 88% 30.22 in 1.2 mi ESE 4.6 mph - N/A   Overcast